North Platte, NE

12:04 AM CST on February 10, 2016 (GMT -0600)
North Platte Regional-Bird

Weather History for KLBF - February, 2013

Change the Weather History Date:

Tuesday, February 26, 2013

  Actual Average Record
Temperature  
Mean Temperature 22 °F 32 °F  
Max Temperature 39 °F 46 °F 74 °F (1896)
Min Temperature 5 °F 18 °F -14 °F (1934)
Degree Days  
Heating Degree Days 43 33  
Month to date heating degree days 932 943  
Since 1 July heating degree days 4887 4963  
Cooling Degree Days 0 0  
Month to date cooling degree days 0 0  
Year to date cooling degree days 0 0  
Moisture  
Dew Point 12 °F    
Average Humidity 70    
Maximum Humidity 92    
Minimum Humidity 48    
Precipitation  
Precipitation 0.00 in 0.02 in 0.57 in (1895)
Month to date precipitation 1.04 0.45  
Year to date precipitation 1.28 0.79  
Snow  
Snow 0.00 in 0.20 in 2.70 in (1937)
Month to date snowfall 11.0 4.9  
Since 1 July snowfall 19.9 20.5  
Snow Depth 2.00 in    
Sea Level Pressure  
Sea Level Pressure 29.93 in    
Wind  
Wind Speed 4 mph (NNW)    
Max Wind Speed 12 mph    
Max Gust Speed 13 mph    
Visibility 7 miles    
Events Fog    
T = Trace of Precipitation, MM = Missing Value Source: NWS Daily Summary

Daily Weather History Graph

Daily Weather History Graph

Search for Another Location

Airport or City:

Trip Planner

Search our weather history database for the weather conditions in past years. The results will help you decide how hot, cold, wet, or windy it might be!

Date:

Astronomy

Feb. 26, 2013 Rise Set
Actual Time 7:21 AM CST 6:30 PM CST
Civil Twilight 6:53 AM CST 6:58 PM CST
Nautical Twilight 6:21 AM CST 7:30 PM CST
Astronomical Twilight 5:49 AM CST 8:02 PM CST
Moon 7:50 PM CST (2/26) 7:23 AM CST (2/26)
Length of Visible Light 12h 04m
Length of Day
11h 09m
Full, 99% of the Moon is Illuminated
Feb 26
Full
Mar 4
Last Quarter
Mar 11
New
Mar 19
First Quarter
Mar 27
Full

Hourly Weather History & Observations

Time (CST) Temp. Windchill Dew Point Humidity Pressure Visibility Wind Dir Wind Speed Gust Speed Precip Events Conditions
12:27 AM 12.2 °F 6.1 °F 8.6 °F 85% 29.89 in 1.2 mi NNW 3.5 mph - N/A   Scattered Clouds
12:29 AM 12.2 °F 6.1 °F 10.4 °F 92% 29.89 in 0.8 mi NNW 3.5 mph - N/A   Mist
12:38 AM 10.4 °F 0.8 °F 8.6 °F 92% 29.89 in 0.2 mi NW 5.8 mph - N/A Fog Light Freezing Fog
12:48 AM 12.2 °F 2.9 °F 8.6 °F 85% 29.88 in 1.8 mi NW 5.8 mph - N/A   Scattered Clouds
12:50 AM 10.4 °F -0.4 °F 8.6 °F 92% 29.88 in 4.0 mi NW 6.9 mph - N/A   Scattered Clouds
12:53 AM 10.9 °F 0.2 °F 9.0 °F 92% 29.99 in 7.0 mi NW 6.9 mph - N/A   Scattered Clouds
1:12 AM 10.4 °F 2.2 °F 8.6 °F 92% 29.89 in 1.8 mi NNW 4.6 mph - N/A   Scattered Clouds
1:15 AM 10.4 °F 2.2 °F 8.6 °F 92% 29.89 in 1.2 mi NNW 4.6 mph - N/A   Mostly Cloudy
1:22 AM 10.4 °F - 8.6 °F 92% 29.90 in 2.0 mi Calm Calm - N/A   Mostly Cloudy
1:30 AM 12.2 °F - 8.6 °F 85% 29.90 in 4.0 mi Calm Calm - N/A   Mostly Cloudy
1:34 AM 10.4 °F - 8.6 °F 92% 29.90 in 1.8 mi Calm Calm - N/A   Mostly Cloudy
1:36 AM 10.4 °F - 8.6 °F 92% 29.90 in 1.2 mi Calm Calm - N/A   Scattered Clouds
1:49 AM 10.4 °F 4.0 °F 8.6 °F 92% 29.89 in 2.0 mi WNW 3.5 mph - N/A   Partly Cloudy
1:50 AM 10.9 °F 4.7 °F 8.1 °F 88% 29.99 in 2.0 mi WNW 3.5 mph - N/A   Partly Cloudy
2:00 AM 10.4 °F - 8.6 °F 92% 29.89 in 1.0 mi Calm Calm - N/A   Mist
2:08 AM 10.4 °F - 8.6 °F 92% 29.89 in 0.5 mi Calm Calm - N/A Fog Light Freezing Fog
2:13 AM 10.4 °F - 8.6 °F 92% 29.89 in 1.2 mi Calm Calm - N/A   Partly Cloudy
2:15 AM 10.4 °F - 8.6 °F 92% 29.89 in 2.5 mi Calm Calm - N/A   Clear
2:22 AM 8.6 °F - 6.8 °F 92% 29.88 in 3.0 mi Calm Calm - N/A   Clear
2:53 AM 9.0 °F 2.4 °F 5.0 °F 84% 29.97 in 6.0 mi WNW 3.5 mph - N/A   Clear
3:53 AM 8.1 °F -0.5 °F 5.0 °F 87% 29.96 in 7.0 mi NW 4.6 mph - N/A   Clear
4:43 AM 10.4 °F -1.5 °F 6.8 °F 85% 29.84 in 8.0 mi WNW 8.1 mph - N/A   Scattered Clouds
4:53 AM 10.9 °F 0.2 °F 8.1 °F 88% 29.93 in 6.0 mi WNW 6.9 mph - N/A   Mostly Cloudy
5:16 AM 8.6 °F -2.6 °F 6.8 °F 92% 29.83 in 10.0 mi WNW 6.9 mph - N/A   Scattered Clouds
5:24 AM 8.6 °F 2.0 °F 6.8 °F 92% 29.83 in 10.0 mi West 3.5 mph - N/A   Mostly Cloudy
5:53 AM 8.1 °F - 3.9 °F 83% 29.94 in 10.0 mi Calm Calm - N/A   Mostly Cloudy
6:00 AM 8.6 °F - 5.0 °F 85% 29.84 in 9.0 mi Calm Calm - N/A   Scattered Clouds
6:53 AM 5.0 °F -4.1 °F 1.9 °F 87% 29.95 in 10.0 mi WNW 4.6 mph - N/A   Clear
7:53 AM 5.0 °F -4.1 °F 1.9 °F 87% 29.96 in 10.0 mi NW 4.6 mph - N/A   Clear
8:53 AM 12.9 °F - 9.0 °F 84% 29.96 in 8.0 mi Calm Calm - N/A   Clear
9:53 AM 18.0 °F 9.8 °F 14.0 °F 84% 29.97 in 6.0 mi West 5.8 mph - N/A   Clear
10:53 AM 24.1 °F - 19.9 °F 84% 29.96 in 8.0 mi Calm Calm - N/A   Clear
11:53 AM 28.0 °F - 21.9 °F 78% 29.95 in 10.0 mi Calm Calm - N/A   Clear
12:53 PM 36.0 °F 29.6 °F 24.1 °F 62% 29.91 in 10.0 mi NNE 8.1 mph - N/A   Clear
1:53 PM 37.0 °F 31.6 °F 21.9 °F 54% 29.89 in 10.0 mi NNE 6.9 mph - N/A   Clear
2:53 PM 37.9 °F 34.4 °F 21.0 °F 51% 29.90 in 10.0 mi NE 4.6 mph - N/A   Clear
3:53 PM 39.0 °F 34.0 °F 21.0 °F 49% 29.92 in 10.0 mi NNE 6.9 mph - N/A   Clear
4:53 PM 39.0 °F 34.0 °F 21.0 °F 49% 29.93 in 10.0 mi North 6.9 mph - N/A   Clear
5:53 PM 37.0 °F 32.4 °F 19.9 °F 50% 29.95 in 10.0 mi NNE 5.8 mph - N/A   Clear
6:53 PM 32.0 °F 26.4 °F 19.9 °F 61% 29.99 in 10.0 mi North 5.8 mph - N/A   Clear
7:53 PM 28.9 °F 22.8 °F 21.0 °F 72% 30.03 in 10.0 mi NE 5.8 mph - N/A   Clear
8:53 PM 27.0 °F - 21.0 °F 78% 30.04 in 10.0 mi Calm Calm - N/A   Clear
9:53 PM 27.0 °F - 21.0 °F 78% 30.05 in 10.0 mi Calm Calm - N/A   Partly Cloudy
10:53 PM 26.1 °F 19.4 °F 19.9 °F 78% 30.06 in 10.0 mi NW 5.8 mph - N/A   Clear
11:53 PM 28.0 °F 19.3 °F 19.9 °F 72% 30.05 in 10.0 mi WNW 9.2 mph - N/A   Mostly Cloudy